Weather History for Middletown, OH

Change the Weather History Date:

Friday, March 15, 2013

  Actual Average (KDAY) Record (KDAY)
Temperature  
Mean Temperature 40 °F 40 °F  
Max Temperature 52 °F 49 °F 79 °F (1977)
Min Temperature 27 °F 31 °F 9 °F (1993)
Degree Days  
Heating Degree Days 26 25  
Month to date heating degree days 414  
Since 1 July heating degree days 4689  
Cooling Degree Days 0 0  
Month to date cooling degree days 0  
Year to date cooling degree days 0  
Moisture  
Dew Point 36 °F    
Average Humidity 84    
Maximum Humidity 100    
Minimum Humidity 64    
Precipitation  
Precipitation 0.00 in 0.11 in 1.52 in (1919)
Month to date precipitation 1.45  
Year to date precipitation 6.40  
Snow  
Snow 0.00 in 0.10 in 2.50 in (1916)
Month to date snowfall 2.1  
Since 1 July snowfall 21.4  
Snow Depth -    
Sea Level Pressure  
Sea Level Pressure 30.00 in    
Wind  
Wind Speed 5 mph (SW)    
Max Wind Speed 9 mph    
Max Gust Speed -    
Visibility 9 miles    
Events      
T = Trace of Precipitation, MM = Missing Value Source: NWS Daily Summary

Daily Weather History Graph

Daily Weather History Graph

Search for Another Location

Airport:

Trip Planner

Search our weather history database for the weather conditions in past years. The results will help you decide how hot, cold, wet, or windy it might be!

Date:

Astronomy

Mar. 15, 2013 Rise Set
Actual Time 7:48 AM EDT 7:44 PM EDT
Civil Twilight 7:21 AM EDT 8:11 PM EDT
Nautical Twilight 6:50 AM EDT 8:42 PM EDT
Astronomical Twilight 6:19 AM EDT 9:14 PM EDT
Moon 9:39 AM EDT (3/15) 11:56 PM EDT (3/15)
Length of Visible Light 12h 49m
Length of Day
11h 56m
Waxing Crescent, 15% of the Moon is Illuminated
Mar 15
Waxing Crescent
Mar 19
First Quarter
Mar 27
Full
Apr 3
Last Quarter
Apr 10
New

Hourly Weather History & Observations

Time (EDT) Temp. Windchill Dew Point Humidity Pressure Visibility Wind Dir Wind Speed Gust Speed Precip Events Conditions
12:15 AM 32.5 °F 27.1 °F 26.8 °F 79% 30.18 in 10.0 mi WSW 5.8 mph - N/A   Clear
12:35 AM 33.3 °F 26.4 °F 27.7 °F 80% 30.18 in 10.0 mi WSW 8.1 mph - N/A   Clear
12:55 AM 35.1 °F 28.6 °F 29.7 °F 81% 30.19 in 10.0 mi WSW 8.1 mph - N/A   Clear
1:15 AM 34.7 °F 28.1 °F 30.6 °F 85% 30.17 in 10.0 mi WSW 8.1 mph - N/A   Clear
1:35 AM 32.5 °F 27.1 °F 29.3 °F 88% 30.16 in 10.0 mi SW 5.8 mph - N/A   Clear
1:55 AM 32.5 °F 28.1 °F 30.2 °F 91% 30.17 in 10.0 mi WSW 4.6 mph - N/A   Clear
2:15 AM 32.5 °F 26.2 °F 30.6 °F 92% 30.16 in 10.0 mi SW 6.9 mph - N/A   Clear
2:35 AM 32.5 °F 27.1 °F 31.1 °F 94% 30.16 in 10.0 mi SW 5.8 mph - N/A   Clear
2:55 AM 32.5 °F 28.1 °F 31.1 °F 94% 30.15 in 10.0 mi SW 4.6 mph - N/A   Clear
3:15 AM 32.5 °F 27.1 °F 31.6 °F 96% 30.15 in 10.0 mi SW 5.8 mph - N/A   Clear
3:35 AM 32.5 °F 27.1 °F 32.0 °F 98% 30.13 in 10.0 mi SW 5.8 mph - N/A   Clear
3:55 AM 32.5 °F 26.2 °F 32.0 °F 98% 30.11 in 10.0 mi SW 6.9 mph - N/A   Clear
4:15 AM 32.5 °F 29.3 °F 32.2 °F 99% 30.11 in 10.0 mi SW 3.5 mph - N/A   Clear
4:35 AM 30.2 °F 26.7 °F 30.2 °F 100% 30.11 in 10.0 mi WSW 3.5 mph - N/A   Clear
4:55 AM 30.2 °F - 30.2 °F 100% 30.10 in 10.0 mi Calm Calm - N/A   Clear
5:15 AM 29.8 °F - 29.8 °F 100% 30.09 in 7.0 mi Calm Calm - N/A   Clear
5:35 AM 28.9 °F - 28.9 °F 100% 30.09 in 5.0 mi Calm Calm - N/A   Clear
5:55 AM 27.9 °F - 27.9 °F 100% 30.09 in 5.0 mi Calm Calm - N/A   Clear
6:15 AM 27.9 °F - 27.9 °F 100% 30.08 in 5.0 mi Calm Calm - N/A   Clear
6:35 AM 27.9 °F - 27.9 °F 100% 30.07 in 3.0 mi Calm Calm - N/A   Clear
6:55 AM 27.9 °F - 27.9 °F 100% 30.07 in 4.0 mi Calm Calm - N/A   Clear
7:15 AM 28.0 °F 24.2 °F 28.0 °F 100% 30.06 in 5.0 mi WSW 3.5 mph - N/A   Clear
7:35 AM 27.9 °F 22.6 °F 27.9 °F 100% 30.05 in 5.0 mi SW 4.6 mph - N/A   Clear
7:55 AM 29.1 °F 25.4 °F 29.1 °F 100% 30.05 in 5.0 mi SW 3.5 mph - N/A   Clear
8:15 AM 29.3 °F 25.6 °F 29.3 °F 100% 30.04 in 5.0 mi WSW 3.5 mph - N/A   Clear
8:35 AM 30.4 °F 26.9 °F 30.4 °F 100% 30.04 in 5.0 mi WSW 3.5 mph - N/A   Clear
8:55 AM 32.5 °F 29.3 °F 32.5 °F 100% 30.04 in 4.0 mi SW 3.5 mph - N/A   Clear
9:15 AM 32.5 °F 28.1 °F 32.5 °F 100% 30.04 in 5.0 mi SW 4.6 mph - N/A   Clear
9:35 AM 34.9 °F 29.9 °F 34.2 °F 97% 30.03 in 10.0 mi SSW 5.8 mph - N/A   Clear
9:55 AM 35.1 °F 30.1 °F 33.4 °F 94% 30.02 in 10.0 mi SW 5.8 mph - N/A   Clear
10:15 AM 35.1 °F 30.1 °F 33.8 °F 95% 30.01 in 10.0 mi SW 5.8 mph - N/A   Clear
10:35 AM 35.2 °F 29.5 °F 33.3 °F 92% 30.01 in 10.0 mi SW 6.9 mph - N/A   Clear
10:55 AM 37.6 °F 33.1 °F 34.9 °F 90% 30.01 in 10.0 mi SW 5.8 mph - N/A   Clear
11:55 AM 40.1 °F 34.1 °F 34.7 °F 81% 29.98 in 10.0 mi SW 9.2 mph - N/A   Clear
12:15 PM 41.0 °F 37.1 °F 34.9 °F 79% 29.98 in 10.0 mi WSW 5.8 mph - N/A   Clear
12:35 PM 41.5 °F 36.4 °F 34.5 °F 76% 29.98 in 10.0 mi West 8.1 mph - N/A   Clear
12:55 PM 44.1 °F 40.1 °F 36.3 °F 74% 29.98 in 10.0 mi West 6.9 mph - N/A   Clear
1:15 PM 45.1 °F 41.4 °F 37.4 °F 74% 29.98 in 10.0 mi WNW 6.9 mph - N/A   Clear
1:35 PM 45.7 °F 41.5 °F 38.1 °F 75% 29.98 in 10.0 mi West 8.1 mph - N/A   Clear
1:55 PM 47.7 °F - 39.2 °F 72% 29.97 in 10.0 mi West 5.8 mph - N/A   Clear
2:15 PM 47.7 °F - 38.8 °F 71% 29.96 in 10.0 mi SW 4.6 mph - N/A   Clear
2:35 PM 47.7 °F - 38.3 °F 70% 29.94 in 10.0 mi SSW 6.9 mph - N/A   Clear
2:55 PM 47.7 °F - 37.2 °F 67% 29.94 in 10.0 mi WSW 8.1 mph - N/A   Clear
3:15 PM 47.7 °F - 37.4 °F 68% 29.93 in 10.0 mi South 5.8 mph - N/A   Clear
3:35 PM 50.2 °F - 39.0 °F 66% 29.92 in 10.0 mi SW 6.9 mph - N/A   Clear
3:55 PM 50.4 °F - 38.8 °F 65% 29.91 in 10.0 mi SSW 9.2 mph - N/A   Clear
4:15 PM 51.1 °F - 39.9 °F 66% 29.91 in 10.0 mi SW 8.1 mph - N/A   Clear
4:35 PM 51.6 °F - 40.3 °F 65% 29.90 in 10.0 mi SW 9.2 mph - N/A   Clear
4:55 PM 52.7 °F - 41.0 °F 64% 29.90 in 10.0 mi SSW 9.2 mph - N/A   Scattered Clouds
5:15 PM 52.7 °F - 41.0 °F 64% 29.90 in 10.0 mi WSW 6.9 mph - N/A   Scattered Clouds
5:35 PM 52.7 °F - 41.0 °F 64% 29.90 in 10.0 mi WSW 8.1 mph - N/A   Scattered Clouds
5:55 PM 52.7 °F - 40.6 °F 64% 29.90 in 10.0 mi WSW 8.1 mph - N/A   Mostly Cloudy
6:15 PM 52.7 °F - 40.6 °F 64% 29.90 in 10.0 mi West 6.9 mph - N/A   Overcast
6:35 PM 52.7 °F - 41.0 °F 64% 29.90 in 10.0 mi West 8.1 mph - N/A   Overcast
6:55 PM 52.7 °F - 41.4 °F 65% 29.90 in 10.0 mi Calm Calm - N/A   Overcast
7:15 PM 50.4 °F - 40.3 °F 68% 29.90 in 10.0 mi Calm Calm - N/A   Overcast
7:35 PM 49.8 °F - 41.0 °F 72% 29.89 in 10.0 mi Calm Calm - N/A   Light Drizzle
7:55 PM 47.7 °F - 41.5 °F 79% 29.86 in 10.0 mi ESE 3.5 mph - N/A   Overcast
8:15 PM 47.7 °F - 42.8 °F 83% 29.89 in 10.0 mi West 9.2 mph - N/A   Overcast
8:35 PM 47.7 °F - 40.8 °F 77% 29.89 in 10.0 mi Calm Calm - N/A   Overcast
8:55 PM 47.7 °F - 41.5 °F 79% 29.89 in 10.0 mi Calm Calm - N/A   Overcast
9:15 PM 47.7 °F - 43.0 °F 84% 29.89 in 10.0 mi Calm Calm - N/A   Overcast
9:35 PM 47.7 °F - 43.3 °F 85% 29.88 in 10.0 mi Calm Calm - N/A   Overcast
9:55 PM 45.9 °F 43.6 °F 43.0 °F 90% 29.88 in 10.0 mi South 4.6 mph - N/A   Overcast
10:15 PM 48.0 °F - 40.5 °F 75% 29.85 in 10.0 mi SE 3.5 mph - N/A   Overcast
10:35 PM 47.7 °F - 41.9 °F 80% 29.86 in 10.0 mi North 4.6 mph - N/A   Overcast
10:55 PM 47.7 °F - 43.7 °F 86% 29.85 in 10.0 mi NNE 3.5 mph - N/A   Overcast
11:15 PM 45.1 °F 42.8 °F 42.3 °F 90% 29.83 in 10.0 mi NE 4.6 mph - N/A   Overcast
11:35 PM 47.7 °F - 43.5 °F 86% 29.82 in 10.0 mi NE 3.5 mph - N/A   Overcast
11:55 PM 46.8 °F - 42.6 °F 85% 29.80 in 10.0 mi NNE 5.8 mph - N/A   Mostly Cloudy